カタログに戻る

COSMOS 970 DEB

運用中LEO
NORAD 10880·DEBRIS·🇷🇺 Russia

打ち上げ Dec 21, 1977 から Baikonur Cosmodrome

Loading…

次のパス (今後24時間)

TLE

最新Source: Space-Track

元期: Sep 14, 2026, 06:46 UTC

1 10880U 77121AB  26257.28219659  .00000169  00000-0  28790-3 0  9994
2 10880  65.8399 185.9099 0109949 180.5446 342.8898 13.66235022421649

AllMySatでCOSMOS 970 DEBをリアルタイム追跡

Download on the App Store